TimePST,TemperatureF,Dew PointF,Humidity,Sea Level PressureIn,VisibilityMPH,Wind Direction,Wind SpeedMPH,Gust SpeedMPH,PrecipitationIn,Events,Conditions,WindDirDegrees,DateUTC
12:56 AM,14.0,9.0,80,30.38,10.0,Calm,Calm,-,N/A,,Clear,0,2013-01-04 08:56:00
1:56 AM,19.9,10.9,68,30.37,10.0,ENE,5.8,-,N/A,,Clear,70,2013-01-04 09:56:00
2:56 AM,10.9,5.0,77,30.41,10.0,Calm,Calm,-,N/A,,Clear,0,2013-01-04 10:56:00
3:56 AM,10.0,6.1,84,30.42,10.0,Calm,Calm,-,N/A,,Clear,0,2013-01-04 11:56:00
4:56 AM,9.0,5.0,84,30.42,10.0,NNW,3.5,-,N/A,,Clear,330,2013-01-04 12:56:00
5:56 AM,12.9,7.0,77,30.43,10.0,WNW,3.5,-,N/A,,Clear,290,2013-01-04 13:56:00
6:56 AM,12.9,8.1,81,30.44,10.0,West,4.6,-,N/A,,Clear,280,2013-01-04 14:56:00
7:56 AM,12.0,7.0,80,30.45,10.0,Calm,Calm,-,N/A,,Clear,0,2013-01-04 15:56:00
8:56 AM,23.0,12.0,63,30.44,10.0,South,4.6,-,N/A,,Clear,170,2013-01-04 16:56:00
9:56 AM,30.0,14.0,51,30.44,10.0,NNE,4.6,-,N/A,,Clear,30,2013-01-04 17:56:00
10:56 AM,33.1,16.0,50,30.41,10.0,East,3.5,-,N/A,,Clear,100,2013-01-04 18:56:00
11:56 AM,36.0,18.0,48,30.36,10.0,ESE,8.1,-,N/A,,Clear,120,2013-01-04 19:56:00
12:56 PM,39.0,19.9,46,30.32,10.0,East,4.6,-,N/A,,Clear,100,2013-01-04 20:56:00
1:56 PM,41.0,21.9,47,30.29,10.0,ESE,4.6,-,N/A,,Clear,110,2013-01-04 21:56:00
2:56 PM,41.0,21.0,45,30.30,10.0,NNE,3.5,-,N/A,,Clear,30,2013-01-04 22:56:00
3:56 PM,39.0,19.9,46,30.31,10.0,North,3.5,-,N/A,,Clear,360,2013-01-04 23:56:00
4:56 PM,28.9,19.9,69,30.33,10.0,Calm,Calm,-,N/A,,Clear,0,2013-01-05 00:56:00
5:56 PM,21.9,17.1,82,30.33,10.0,Calm,Calm,-,N/A,,Clear,0,2013-01-05 01:56:00
6:56 PM,21.9,16.0,78,30.34,10.0,WNW,3.5,-,N/A,,Clear,300,2013-01-05 02:56:00
7:56 PM,26.1,17.1,69,30.34,10.0,Calm,Calm,-,N/A,,Clear,0,2013-01-05 03:56:00
8:56 PM,19.0,14.0,81,30.33,10.0,Calm,Calm,-,N/A,,Clear,0,2013-01-05 04:56:00
9:56 PM,21.9,15.1,75,30.32,10.0,Calm,Calm,-,N/A,,Clear,0,2013-01-05 05:56:00
10:56 PM,15.1,10.9,84,30.32,10.0,Calm,Calm,-,N/A,,Clear,0,2013-01-05 06:56:00
11:56 PM,17.1,12.9,84,30.30,10.0,WNW,4.6,-,N/A,,Clear,300,2013-01-05 07:56:00